Home   Weather   Bursa   Past weeks

Flag for Turkey Past Weather in Bursa, Turkey — Yesterday and Last 2 Weeks

Now
72 °F

Clear.


Feels Like: 72 °F
Forecast: 61 / 91 °F
Wind: 3 mph from Northeast

Location: Bursa

Current Time: Jun 25, 2017 at 3:10:52 am

Latest Report: Jun 25, 2017 at 2:00 am


Visibility: 9 mi

Pressure: 29.94 "Hg

Humidity: 82%

Dew Point: 66 °F

Location of BursaLocation

Past Weather in Bursa — Graph

°F

Bursa Temperature Yesterday

Maximum temperature yesterday: 91 °F (at 2:00 pm)
Minimum temperature yesterday: 64 °F (at 5:00 am)
Average temperature yesterday: 79 °F

High & Low Weather Summary for the Past Weeks

 TemperatureHumidityPressure
High91 °F (Jun 24, 2:00 pm)100% (Jun 19, 4:00 am)30.03 "Hg (Jun 19, 4:00 am)
Low57 °F (Jun 21, 5:00 am)29% (Jun 17, 6:00 pm)29.74 "Hg (Jun 17, 6:00 pm)
Average71 °F71%29.90 "Hg
* Reported Jun 10 1:00 am — Jun 25 1:00 am, Bursa. Weather by CustomWeather, © 2017

Note: Actual official high and low records may vary slightly from our data, if they occured in-between our weather recording intervals... More about our weather records

Advertising

Bursa Weather History for the Previous 24 Hours

Scroll right to see more
 ConditionsComfort  
Time TempWeatherWind HumidityBarometerVisibility
1:00 am
Sun, Jun 25
74 °FClear.2 mph76%29.94 "Hg9 mi
12:00 am76 °FClear.3 mph71%29.93 "Hg9 mi
11:00 pm
Sat, Jun 24
78 °FClear.6 mph64%29.93 "Hg9 mi
10:00 pm79 °FClear.6 mph60%29.92 "Hg9 mi
9:00 pm81 °FClear.7 mph57%29.90 "Hg9 mi
8:00 pm85 °FSunny.7 mph53%29.90 "Hg9 mi
7:00 pm87 °FSunny.9 mph52%29.89 "Hg9 mi
6:00 pm90 °FSunny.7 mph47%29.88 "Hg9 mi
5:00 pm90 °FSunny.7 mph43%29.88 "Hg9 mi
4:00 pm90 °FSunny.5 mph43%29.89 "Hg9 mi
3:00 pm90 °FSunny.7 mph43%29.90 "Hg9 mi
2:00 pm91 °FSunny.3 mph47%29.90 "Hg9 mi
1:00 pm90 °FSunny.2 mph49%29.90 "Hg9 mi
12:00 pm90 °FScattered clouds.2 mph43%29.92 "Hg9 mi
11:00 am85 °FScattered clouds.2 mph52%29.92 "Hg9 mi
10:00 am82 °FSunny.2 mph55%29.92 "Hg9 mi
9:00 am79 °FSunny.1 mph60%29.91 "Hg9 mi
8:00 am72 °FSunny.2 mph73%29.91 "Hg9 mi
7:00 am70 °FSunny.1 mph79%29.91 "Hg9 mi
6:00 am64 °FSunny.1 mph89%29.90 "Hg9 mi
5:00 am64 °FClear.1 mph89%29.90 "Hg9 mi
4:00 am66 °FClear.1 mph86%29.91 "Hg9 mi
3:00 am67 °FClear.1 mph84%29.91 "Hg9 mi
Weather by CustomWeather, © 2017

See weather overviewHow to use our weather pages